Powrót do katalogu

METEOR 2-8 DEB

AktywnyPO
NORAD 36349·DEBRIS·🇷🇺 Russia

Wystrzelony Mar 25, 1982 z Plesetsk Cosmodrome

Loading…

Następne Przeloty (najbliższe 24 godziny)

TLE

ŚwieżeSource: Space-Track

Epoka: Sep 13, 2026, 03:59 UTC

1 36349U 82025AK  26256.16649523  .00004653  00000-0  13863-2 0  9990
2 36349  82.5007  56.8934 0013986 258.2737 101.6886 14.42899872219562

Śledź METEOR 2-8 DEB w czasie rzeczywistym z AllMySat

Download on the App Store